EDT,Max TemperatureF,Mean TemperatureF,Min TemperatureF,Max Dew PointF,MeanDew PointF,Min DewpointF,Max Humidity, Mean Humidity, Min Humidity, Max Sea Level PressureIn, Mean Sea Level PressureIn, Min Sea Level PressureIn, Max VisibilityMiles, Mean VisibilityMiles, Min VisibilityMiles, Max Wind SpeedMPH, Mean Wind SpeedMPH, Max Gust SpeedMPH,PrecipitationIn, CloudCover, Events, WindDirDegrees
2012-10-1,66,54,41,48,43,37,100,76,37,29.96,29.92,29.89,10,10,10,7,2,,0.00,2,,211
2012-10-2,62,60,57,59,55,48,97,86,67,29.99,29.95,29.92,10,6,0,7,2,,0.02,8,Fog-Rain,186
2012-10-3,77,68,59,64,60,59,100,88,57,30.16,30.05,29.97,10,5,0,9,1,,0.00,6,Fog,249
2012-10-4,73,64,55,61,56,46,100,78,41,30.19,30.15,30.11,10,9,4,14,2,,0.00,4,Rain,253
2012-10-5,75,64,53,55,52,49,88,73,44,30.13,30.06,29.92,10,10,10,12,4,23,0.00,1,,236
2012-10-6,60,54,47,54,43,30,88,67,41,30.08,29.93,29.81,10,10,5,17,6,23,0.00,2,Rain,271
2012-10-7,50,44,39,41,35,30,87,70,52,30.16,30.08,30.01,10,10,3,12,3,,0.00,5,Rain,266
2012-10-8,48,42,35,38,35,32,93,81,58,30.27,30.22,30.15,10,10,10,7,3,,0.00,5,,238
2012-10-9,59,50,41,43,39,34,90,75,41,30.22,30.14,30.04,10,10,10,6,1,,0.00,6,,199
2012-10-10,59,50,41,45,41,32,94,80,55,30.06,29.98,29.85,10,8,4,17,4,25,0.00,4,,252
2012-10-11,55,46,37,32,30,27,70,56,33,30.26,30.15,30.07,10,10,10,14,9,24,0.00,2,,269
2012-10-12,51,44,36,34,27,18,71,54,30,30.44,30.24,30.10,10,10,7,15,6,22,0.00,2,Rain,289
2012-10-13,53,40,26,34,27,21,88,60,35,30.47,30.35,30.17,10,10,10,13,3,,0.00,1,,198
2012-10-14,71,60,50,50,43,34,67,59,46,30.16,30.02,29.82,10,10,10,13,7,20,0.00,5,,212
2012-10-15,63,56,50,54,46,38,82,65,42,29.82,29.76,29.70,10,10,10,22,10,29,0.00,5,,247
2012-10-16,53,46,40,40,37,34,80,70,47,29.93,29.87,29.82,10,10,10,13,6,22,0.00,5,Rain,292
2012-10-17,62,48,33,41,36,32,100,71,34,29.99,29.93,29.88,10,10,7,13,1,,0.00,1,,181
2012-10-18,62,54,47,52,45,40,94,75,55,29.89,29.85,29.80,10,10,2,18,4,21,0.34,4,Rain-Thunderstorm,172
2012-10-19,59,54,48,54,49,45,100,93,82,29.84,29.73,29.63,10,5,0,21,3,31,0.01,7,Fog,23
2012-10-20,53,47,41,44,40,36,90,79,51,29.88,29.77,29.68,10,10,10,17,5,,0.00,4,,219
2012-10-21,57,48,40,41,38,35,91,69,47,30.12,30.03,29.90,10,10,10,17,7,16,0.00,4,,252
2012-10-22,68,54,40,44,38,35,80,59,33,30.19,30.13,30.10,10,10,10,12,6,,0.00,1,,245
2012-10-23,71,60,49,54,48,44,94,72,46,30.12,30.08,30.02,10,10,10,8,1,,0.00,4,Rain-Thunderstorm,254
2012-10-24,75,64,53,52,51,48,94,72,38,30.14,30.10,30.07,10,10,10,13,1,17,0.00,4,,243
2012-10-25,69,60,51,55,53,50,94,79,56,30.20,30.15,30.13,10,8,4,7,1,,0.00,4,,184
2012-10-26,62,60,57,56,54,52,89,81,72,30.18,30.13,30.08,10,6,5,12,4,,0.00,8,,177
2012-10-27,59,57,55,54,53,52,89,84,77,30.07,29.99,29.93,10,6,4,8,3,,0.00,8,,88
2012-10-28,55,50,45,53,46,43,100,90,82,29.94,29.87,29.74,10,8,3,16,9,18,0.05,8,Rain,31
2012-10-29,47,45,44,44,42,39,93,88,81,29.74,29.50,28.72,10,7,3,23,11,40,0.03,8,Rain,4
2012-10-30,52,44,35,49,39,33,93,88,81,29.92,29.08,28.72,10,7,3,25,15,43,0.46,8,Rain,81
2012-10-31,40,36,33,36,34,32,93,88,79,29.56,29.47,29.39,10,9,3,15,5,20,0.02,8,Rain,222